Weather in Changzhi

China     36°16′54″N   113°04′21″E
temp.,
°C
wind,
m/s
gust,
m/s
humid.,
%
clouds,
%
prec.,
mm/h
press.,
hPa
HPBL,
m
13 may, thu
thu1323:00+18s3648100 0.0 1009128
02:00+16s3657100 0.0 1008139
05:00+15sse116398 0.0 100915
08:00+19se224722 0.0 1009402
11:00+25s343010 0.0 10061690
14:00+28ssw552981 0.0 10042731
17:00+25sse5739100 0.0 1004759
20:00+21sse4848100 0.0 1005291
14 may, fri
fri1423:00+17sse2575100 0.0 1007144
02:00+17e1276100 0.0 100634
05:00+15e229014 0.0 100631
08:00+19ene337349 0.0 1006673
11:00+22sse125996 0.1 10041092
14:00+20s457089 0.9 1004577
17:00+22se236095 0.2 10021240
20:00+20s2473100 0.4 1004365
15 may, sat
sat1523:00+18se1182100 0.0 100550
02:00+16s1192100 0.0 100420
05:00+15se009385 0.0 100419
08:00+19ne117622 0.0 1005449
11:00+24ene2253100 0.0 10031476
14:00+23ene2359100 0.6 10021018
17:00+17wnw4575100 1.0 1004293
20:00+15ne4686100 2.8 1006518
16 may, sun
sun1623:00+11ene81483100 7.8 1010609
02:00+10ene81283100 8.4 1011569
05:00+10ne4683100 0.2 1012369
08:00+10ne1289100 2.8 1013267
11:00+11ne2383100 0.5 1015450
14:00+12w1180100 0.8 1014335
17:00+15s3267100 0.0 1013447
20:00+13s3477100 0.0 1014108
17 may, mon
mon1723:00+13sw2282100 0.0 101639
02:00+12wsw1186100 0.0 101519
05:00+11wsw1188100 0.0 101516
08:00+14wnw2267100 0.0 1016300
11:00+20n2327100 0.0 10151491
14:00+23nw23205 0.0 10122280
17:00+23w22180 0.0 10112129
20:00+20wsw11244 0.0 101125